This is the latest recevied weather packets stored in our database for station/object KO4LFZ. If no packets are shown the sender has not sent any weather packets the latest 10 day(s).
| Time | Temp. | Humidity | Pressure | Rain* | Wind** | Luminosity | Snow |
|---|---|---|---|---|---|---|---|
| 1778163494 | 13.89° C | 61% | 1017.7 hPa | 0 mm | - | 589 W/m² | - |
| 1778163186 | 13.89° C | 62% | 1017.6 hPa | 0 mm | - | 572 W/m² | - |
| 1778162882 | 14.44° C | 65% | 1018 hPa | 0 mm | - | 551 W/m² | - |
| 1778162580 | 13.89° C | 67% | 1017.8 hPa | 0 mm | - | 528 W/m² | - |
| 1778162277 | 13.33° C | 68% | 1018 hPa | 0 mm | - | 510 W/m² | - |
| 1778161974 | 13.33° C | 67% | 1017.6 hPa | 0 mm | - | 491 W/m² | - |
| 1778161670 | 13.33° C | 68% | 1017.6 hPa | 0 mm | - | 451 W/m² | - |
| 1778161367 | 12.78° C | 71% | 1017.7 hPa | 0 mm | - | 445 W/m² | - |
| 1778161063 | 12.78° C | 72% | 1017.8 hPa | 0 mm | - | 413 W/m² | - |
| 1778160759 | 12.22° C | 74% | 1018 hPa | 0 mm | - | 384 W/m² | - |
| 1778160457 | 12.22° C | 75% | 1017.8 hPa | 0 mm | - | 368 W/m² | - |
| 1778160154 | 11.67° C | 77% | 1017.3 hPa | 0 mm | - | 331 W/m² | - |
| 1778159851 | 11.67° C | 76% | 1017.4 hPa | 0 mm | - | 311 W/m² | - |
| 1778159548 | 11.67° C | 82% | 1017.5 hPa | 0 mm | - | 291 W/m² | - |
| 1778159244 | 11.67° C | 85% | 1017.6 hPa | 0 mm | - | 263 W/m² | - |
| 1778158942 | 11.11° C | 86% | 1017.7 hPa | 0 mm | - | 254 W/m² | - |
| 1778158640 | 10.56° C | 91% | 1017.7 hPa | 0 mm | - | 234 W/m² | - |
| 1778158338 | 10.56° C | 93% | 1017.5 hPa | 0 mm | - | 193 W/m² | - |
| 1778158034 | 10° C | 96% | 1017.3 hPa | 0 mm | - | 236 W/m² | - |
| 1778157731 | 10° C | 97% | 1017.4 hPa | 0 mm | - | 221 W/m² | - |
| 1778157430 | 10° C | 98% | 1017.4 hPa | 0 mm | - | 174 W/m² | - |
| 1778157127 | 9.44° C | 99% | 1017.3 hPa | 0 mm | - | 110 W/m² | - |
| 1778156822 | 8.89° C | 99% | 1017.3 hPa | 0 mm | - | 112 W/m² | - |
| 1778156518 | 8.89° C | 99% | 1017.3 hPa | 0 mm | - | 175 W/m² | - |
| 1778156214 | 8.33° C | 99% | 1017 hPa | 0 mm | - | 117 W/m² | - |
* Rain latest hour (hover to see other rain measurements)
** Current wind speed in m/s (hover to see current wind gust speed)